This is the latest recevied weather packets stored in our database for station/object W4MSI. If no packets are shown the sender has not sent any weather packets the latest 10 day(s).
| Time | Temp. | Humidity | Pressure | Rain* | Wind** | Luminosity | Snow |
|---|---|---|---|---|---|---|---|
| 1778087066 | 15° C | 72% | 1013.2 hPa | 0 mm | - | 660 W/m² | - |
| 1778086765 | 15° C | 71% | 1013.4 hPa | 0 mm | - | 574 W/m² | - |
| 1778086463 | 14.44° C | 72% | 1013.5 hPa | 0 mm | - | 580 W/m² | - |
| 1778086159 | 14.44° C | 75% | 1013.7 hPa | 0 mm | - | 375 W/m² | - |
| 1778085856 | 14.44° C | 69% | 1013.7 hPa | 0 mm | - | 454 W/m² | - |
| 1778085554 | 14.44° C | 70% | 1013.8 hPa | 0 mm | - | 384 W/m² | - |
| 1778085254 | 13.89° C | 70% | 1014 hPa | 0 mm | - | 385 W/m² | - |
| 1778084949 | 13.89° C | 73% | 1013.9 hPa | 0 mm | - | 446 W/m² | - |
| 1778084647 | 14.44° C | 71% | 1013.9 hPa | 0 mm | - | 382 W/m² | - |
| 1778084344 | 14.44° C | 75% | 1013.9 hPa | 0 mm | - | 360 W/m² | - |
| 1778084042 | 13.89° C | 76% | 1014 hPa | 0 mm | - | 460 W/m² | - |
| 1778083739 | 13.33° C | 77% | 1014.2 hPa | 0 mm | - | 573 W/m² | - |
| 1778083436 | 13.33° C | 80% | 1014 hPa | 0 mm | - | 351 W/m² | - |
| 1778083135 | 13.33° C | 79% | 1014 hPa | 0 mm | - | 199 W/m² | - |
| 1778082831 | 13.33° C | 76% | 1013.7 hPa | 0 mm | - | 574 W/m² | - |
| 1778081708 | 13.33° C | 79% | 1013.6 hPa | 0 mm | - | 546 W/m² | - |
| 1778081406 | 13.33° C | 79% | 1013.3 hPa | 0 mm | - | 599 W/m² | - |
| 1778081102 | 12.78° C | 80% | 1013.3 hPa | 0 mm | - | 715 W/m² | - |
| 1778080800 | 12.22° C | 83% | 1013 hPa | 0 mm | - | 730 W/m² | - |
| 1778080498 | 11.67° C | 84% | 1013 hPa | 0 mm | - | 554 W/m² | - |
| 1778080195 | 11.67° C | 86% | 1012.7 hPa | 0 mm | - | 654 W/m² | - |
| 1778079891 | 11.67° C | 87% | 1012.6 hPa | 0 mm | - | 440 W/m² | - |
| 1778079588 | 11.11° C | 88% | 1012.8 hPa | 0 mm | - | 493 W/m² | - |
| 1778079284 | 11.11° C | 90% | 1012.7 hPa | 0 mm | - | 441 W/m² | - |
| 1778078982 | 10.56° C | 95% | 1012.6 hPa | 0 mm | - | 328 W/m² | - |
* Rain latest hour (hover to see other rain measurements)
** Current wind speed in m/s (hover to see current wind gust speed)